TimeEDT,TemperatureF,Dew PointF,Humidity,Sea Level PressureIn,VisibilityMPH,Wind Direction,Wind SpeedMPH,Gust SpeedMPH,PrecipitationIn,Events,Conditions,WindDirDegrees,DateUTC
12:53 AM,69.1,63.0,81,29.90,10.0,WNW,4.6,-,N/A,,Clear,290,2013-08-03 04:53:00
1:53 AM,69.1,63.0,81,29.93,10.0,West,5.8,-,N/A,,Clear,280,2013-08-03 05:53:00
2:53 AM,66.9,62.1,84,29.93,10.0,WNW,4.6,-,N/A,,Clear,290,2013-08-03 06:53:00
3:53 AM,66.0,61.0,84,29.93,10.0,Calm,Calm,-,N/A,,Clear,0,2013-08-03 07:53:00
4:53 AM,64.0,61.0,90,29.94,10.0,Calm,Calm,-,N/A,,Clear,0,2013-08-03 08:53:00
5:53 AM,63.0,59.0,87,29.96,10.0,NNW,3.5,-,N/A,,Clear,330,2013-08-03 09:53:00
6:53 AM,62.1,57.0,84,29.96,10.0,Calm,Calm,-,N/A,,Clear,0,2013-08-03 10:53:00
7:53 AM,64.9,57.0,75,29.97,10.0,NNW,3.5,-,N/A,,Clear,340,2013-08-03 11:53:00
8:53 AM,68.0,55.9,65,29.98,10.0,North,4.6,-,N/A,,Clear,360,2013-08-03 12:53:00
9:53 AM,72.0,57.0,59,29.99,10.0,NNE,4.6,-,N/A,,Clear,30,2013-08-03 13:53:00
10:53 AM,73.9,55.9,53,29.99,10.0,North,6.9,-,N/A,,Clear,10,2013-08-03 14:53:00
11:53 AM,75.9,55.0,48,29.99,10.0,Variable,4.6,-,N/A,,Scattered Clouds,0,2013-08-03 15:53:00
12:53 PM,75.0,51.1,43,29.99,10.0,West,10.4,-,N/A,,Overcast,280,2013-08-03 16:53:00
1:53 PM,78.1,52.0,40,29.98,10.0,NNW,12.7,16.1,N/A,,Scattered Clouds,340,2013-08-03 17:53:00
2:53 PM,78.1,48.9,36,29.99,10.0,WNW,8.1,-,N/A,,Mostly Cloudy,300,2013-08-03 18:53:00
3:53 PM,80.1,48.9,34,29.99,10.0,Variable,4.6,-,N/A,,Partly Cloudy,0,2013-08-03 19:53:00
4:53 PM,79.0,46.9,32,29.99,10.0,WNW,8.1,16.1,N/A,,Scattered Clouds,290,2013-08-03 20:53:00
5:53 PM,78.1,48.0,35,29.98,10.0,NW,10.4,-,N/A,,Scattered Clouds,310,2013-08-03 21:53:00
6:53 PM,79.0,48.9,35,29.97,10.0,North,9.2,-,N/A,,Scattered Clouds,350,2013-08-03 22:53:00
7:53 PM,75.9,50.0,40,29.98,10.0,NW,8.1,-,N/A,,Clear,310,2013-08-03 23:53:00
8:53 PM,73.9,51.1,45,29.99,10.0,NW,3.5,-,N/A,,Mostly Cloudy,320,2013-08-04 00:53:00
9:53 PM,72.0,53.1,51,30.01,10.0,North,8.1,-,N/A,,Mostly Cloudy,360,2013-08-04 01:53:00
10:53 PM,70.0,53.1,55,30.02,10.0,North,10.4,18.4,N/A,,Partly Cloudy,360,2013-08-04 02:53:00
11:53 PM,66.9,57.0,70,30.04,10.0,North,8.1,-,N/A,,Partly Cloudy,10,2013-08-04 03:53:00